TimeEDT,TemperatureF,Dew PointF,Humidity,Sea Level PressureIn,VisibilityMPH,Wind Direction,Wind SpeedMPH,Gust SpeedMPH,PrecipitationIn,Events,Conditions,WindDirDegrees,DateUTC
12:54 AM,71.1,68.0,90,29.89,10.0,Calm,Calm,-,N/A,,Overcast,0,2013-09-02 04:54:00
1:54 AM,70.0,69.1,97,29.88,9.0,North,5.8,-,0.03,Rain,Light Rain,10,2013-09-02 05:54:00
2:18 AM,69.8,69.8,100,29.88,6.0,Calm,Calm,-,0.01,Rain,Light Rain,0,2013-09-02 06:18:00
2:54 AM,70.0,69.1,97,29.87,5.0,Calm,Calm,-,0.04,Rain,Light Rain,0,2013-09-02 06:54:00
3:03 AM,69.8,68.0,94,29.87,6.0,Calm,Calm,-,0.00,Rain,Light Rain,0,2013-09-02 07:03:00
3:54 AM,69.1,68.0,96,29.87,2.0,ENE,4.6,-,0.13,Rain-Thunderstorm,Heavy Rain,70,2013-09-02 07:54:00
3:58 AM,69.8,68.0,94,29.87,1.2,Variable,3.5,-,0.13,Rain-Thunderstorm,Heavy Rain,0,2013-09-02 07:58:00
4:10 AM,69.8,68.0,94,29.87,1.0,East,4.6,-,0.39,Rain-Thunderstorm,Heavy Thunderstorms and Rain,90,2013-09-02 08:10:00
4:19 AM,68.0,68.0,100,29.86,2.0,East,4.6,-,0.47,Rain-Thunderstorm,Heavy Rain,80,2013-09-02 08:19:00
4:32 AM,68.0,66.2,94,29.87,3.0,Calm,Calm,-,0.55,Rain,Heavy Rain,0,2013-09-02 08:32:00
4:38 AM,68.0,68.0,100,29.87,6.0,Calm,Calm,-,0.56,Rain-Thunderstorm,Rain,0,2013-09-02 08:38:00
4:46 AM,68.0,66.2,94,29.86,4.0,ENE,3.5,-,0.60,Rain-Thunderstorm,Heavy Thunderstorms and Rain,60,2013-09-02 08:46:00
4:54 AM,68.0,66.9,96,29.86,8.0,East,4.6,-,0.60,Rain-Thunderstorm,Light Thunderstorms and Rain,80,2013-09-02 08:54:00
5:04 AM,68.0,66.2,94,29.86,10.0,Calm,Calm,-,0.00,Rain,Light Rain,0,2013-09-02 09:04:00
5:54 AM,69.1,66.9,93,29.86,8.0,Calm,Calm,-,0.01,,Overcast,0,2013-09-02 09:54:00
6:21 AM,69.8,68.0,94,29.86,7.0,ESE,4.6,-,0.00,Rain,Light Rain,110,2013-09-02 10:21:00
6:54 AM,68.0,66.9,96,29.85,10.0,East,4.6,-,0.00,,Overcast,90,2013-09-02 10:54:00
7:47 AM,66.2,66.2,100,29.85,1.5,East,8.1,-,0.09,Rain,Heavy Rain,100,2013-09-02 11:47:00
7:50 AM,66.2,66.2,100,29.85,0.8,East,6.9,-,0.21,Rain-Thunderstorm,Heavy Thunderstorms and Rain,90,2013-09-02 11:50:00
7:54 AM,66.9,64.9,93,29.85,0.5,Variable,4.6,-,0.25,Fog-Rain-Thunderstorm,Heavy Thunderstorms and Rain,0,2013-09-02 11:54:00
8:00 AM,66.2,64.4,94,29.86,1.0,ESE,4.6,-,0.08,Rain-Thunderstorm,Heavy Thunderstorms and Rain,110,2013-09-02 12:00:00
8:11 AM,66.2,64.4,94,29.86,0.8,ESE,11.5,-,0.29,Rain-Thunderstorm,Heavy Thunderstorms and Rain,120,2013-09-02 12:11:00
8:18 AM,66.2,64.4,94,29.87,1.5,SE,6.9,16.1,0.35,Rain-Thunderstorm,Heavy Thunderstorms and Rain,130,2013-09-02 12:18:00
8:25 AM,66.2,64.4,94,29.87,3.0,Variable,3.5,-,0.37,Rain-Thunderstorm,Thunderstorms and Rain,0,2013-09-02 12:25:00
8:33 AM,66.2,64.4,94,29.87,2.5,Calm,Calm,-,0.40,Rain,Heavy Rain,0,2013-09-02 12:33:00
8:42 AM,66.2,64.4,94,29.87,2.5,Calm,Calm,-,0.44,Rain,Heavy Rain,0,2013-09-02 12:42:00
8:45 AM,66.2,64.4,94,29.87,3.0,Calm,Calm,-,0.44,Rain,Rain,0,2013-09-02 12:45:00
8:52 AM,66.2,66.2,100,29.86,10.0,ESE,4.6,-,0.45,Rain,Light Rain,110,2013-09-02 12:52:00
8:54 AM,66.9,66.0,97,29.86,10.0,East,4.6,-,0.45,Rain,Light Rain,100,2013-09-02 12:54:00
9:02 AM,66.2,64.4,94,29.86,8.0,Calm,Calm,-,0.01,Rain,Light Rain,0,2013-09-02 13:02:00
9:15 AM,66.2,64.4,94,29.87,9.0,Variable,3.5,-,0.02,Rain,Light Rain,0,2013-09-02 13:15:00
9:30 AM,66.2,64.4,94,29.88,9.0,ENE,3.5,-,0.04,Rain,Light Rain,60,2013-09-02 13:30:00
9:54 AM,66.9,64.9,93,29.88,6.0,ENE,5.8,-,0.04,Rain,Light Rain,70,2013-09-02 13:54:00
10:15 AM,66.2,64.4,94,29.88,2.0,Variable,4.6,-,0.01,Rain,Light Rain,0,2013-09-02 14:15:00
10:20 AM,66.2,64.4,94,29.88,3.0,ENE,4.6,-,0.01,Rain,Light Rain,70,2013-09-02 14:20:00
10:28 AM,66.2,66.2,100,29.88,5.0,East,3.5,-,0.01,Rain,Light Rain,80,2013-09-02 14:28:00
10:54 AM,66.9,64.9,93,29.87,8.0,Calm,Calm,-,0.01,,Overcast,0,2013-09-02 14:54:00
11:54 AM,66.9,64.9,93,29.86,7.0,North,4.6,-,0.00,,Overcast,10,2013-09-02 15:54:00
12:54 PM,68.0,64.9,90,29.85,8.0,North,3.5,-,N/A,,Overcast,350,2013-09-02 16:54:00
1:54 PM,66.9,64.9,93,29.84,5.0,NE,4.6,-,N/A,,Overcast,50,2013-09-02 17:54:00
2:54 PM,66.9,64.9,93,29.82,6.0,NNE,4.6,-,0.01,,Overcast,20,2013-09-02 18:54:00
3:54 PM,66.9,66.0,97,29.82,3.0,Variable,3.5,-,0.03,Rain,Rain,0,2013-09-02 19:54:00
4:54 PM,66.9,66.0,97,29.80,3.0,Calm,Calm,-,0.05,,Overcast,0,2013-09-02 20:54:00
5:10 PM,66.2,64.4,94,29.80,1.8,NNE,3.5,-,N/A,,Overcast,20,2013-09-02 21:10:00
5:30 PM,66.2,66.2,100,29.79,1.2,NNE,3.5,-,N/A,,Overcast,30,2013-09-02 21:30:00
5:39 PM,66.2,66.2,100,29.79,1.5,NE,3.5,-,N/A,,Overcast,50,2013-09-02 21:39:00
5:54 PM,66.9,66.0,97,29.79,1.5,NNE,3.5,-,N/A,,Overcast,30,2013-09-02 21:54:00
6:39 PM,66.2,66.2,100,29.78,1.2,NNW,3.5,-,0.01,,Overcast,340,2013-09-02 22:39:00
6:51 PM,66.2,64.4,94,29.78,1.5,NNE,4.6,-,0.01,,Overcast,20,2013-09-02 22:51:00
6:54 PM,66.9,64.9,93,29.78,1.5,NNE,3.5,-,0.01,,Overcast,20,2013-09-02 22:54:00
7:11 PM,66.2,66.2,100,29.78,2.5,North,3.5,-,0.01,Rain,Light Rain,350,2013-09-02 23:11:00
7:23 PM,66.2,64.4,94,29.77,4.0,Calm,Calm,-,0.01,,Overcast,0,2013-09-02 23:23:00
7:54 PM,66.0,64.9,96,29.78,3.0,NNW,3.5,-,0.02,,Overcast,330,2013-09-02 23:54:00
8:07 PM,66.2,64.4,94,29.78,2.5,NNW,4.6,-,N/A,,Overcast,340,2013-09-03 00:07:00
8:41 PM,66.2,64.4,94,29.78,3.0,Calm,Calm,-,N/A,,Overcast,0,2013-09-03 00:41:00
8:54 PM,66.0,64.9,96,29.78,3.0,Calm,Calm,-,N/A,,Overcast,0,2013-09-03 00:54:00
9:15 PM,66.2,64.4,94,29.78,2.0,Calm,Calm,-,0.00,Rain,Light Rain,0,2013-09-03 01:15:00
9:46 PM,66.2,64.4,94,29.78,3.0,Calm,Calm,-,0.05,Rain,Rain,0,2013-09-03 01:46:00
9:54 PM,66.0,64.9,96,29.78,4.0,Calm,Calm,-,0.07,Rain,Rain,0,2013-09-03 01:54:00
10:54 PM,66.0,64.9,96,29.77,10.0,Calm,Calm,-,0.01,,Overcast,0,2013-09-03 02:54:00
11:54 PM,66.0,64.9,96,29.77,10.0,Calm,Calm,-,N/A,,Overcast,0,2013-09-03 03:54:00